YAOGAN 1

导读 | 豆包AI

YAOGAN 1(遥感一号)是中国于2006年4月26日8时发射的首颗遥感卫星,主要用于国土资源勘查、环境监测与保护、城市规划、农作物估产、防灾减灾和空间科学试验等领域。它的成功发射标志着中国遥感卫星技术进入新发展阶段,为国民经济建设提供了有力的空间信息支撑,推动了中国航天遥感产业的应用发展。

Basic Information
目录编号:
29092
目录名称:
YAOGAN 1
国际标识:
2006-015A
轨道中心:
EARTH
卫星名称:
YAOGAN 1
卫星全名:
--
卫星状态:
在轨 (已飞行7334 天)
发射日期:
2006-04-26 UTC
国别 :
中国 (CN)
星等 :
--
Orbit Information
数据来源 国际轨道数据 AOE轨道数据
星历时间 2026-05-24T08:28:14+0800
23小时前
查看轨道信息
2026-05-23T17:00:00+0800
1天前
查看轨道信息
半长轴 6983.247km 6983.255km
偏心率 0.0001465 0.0001586
轨道倾角 97.747° 97.747°
近地点辐角 89.912° 91.223°
升交点赤经 165.532° 164.904°
平近点角 270.226° 58.686°
近地点 604.086km 604.01km
远地点 606.134km 606.226km
周期 96.793分钟 96.794分钟
每日圈数 14.877047 14.87702
Detailed Information
使用方式:
暂无
2D Orbit Map
3D Orbit Map
Orbit Altitude Analysis Chart
Orbit Inclination Analysis Chart
Orbit Comprehensive Analysis Chart
View Comprehensive Chart